Overview Statistics Trail Chart Weather Telemetry Raw packets
 

This is the latest recevied weather packets stored in our database for station/object KI5NXU. If no packets are shown the sender has not sent any weather packets the latest 10 day(s).

<< 5 6 7 8 9 10 11 >>
Time Temp. Humidity Pressure Rain* Wind** Luminosity Snow
1788359462 30.56° C 60% 1015.8 hPa 0 mm - 272 W/m² -
1788359158 30.56° C 61% 1015.8 hPa 0 mm - 260 W/m² -
1788358853 30° C 62% 1015.6 hPa 0 mm - 273 W/m² -
1788358548 30° C 62% 1015.9 hPa 0 mm - 231 W/m² -
1788358243 30° C 62% 1015.5 hPa 0 mm - 200 W/m² -
1788357944 30° C 63% 1015.8 hPa 0 mm - 187 W/m² -
1788357639 29.44° C 63% 1015.7 hPa 0 mm - 184 W/m² -
1788357333 29.44° C 64% 1015.7 hPa 0 mm - 167 W/m² -
1788357028 28.89° C 65% 1015.5 hPa 0 mm - 158 W/m² -
1788356723 28.89° C 65% 1015.7 hPa 0 mm - 139 W/m² -
1788356417 28.89° C 66% 1015.9 hPa 0 mm - 124 W/m² -
1788356112 28.89° C 66% 1015.7 hPa 0 mm - 100 W/m² -
1788355812 28.33° C 67% 1015.6 hPa 0 mm - 72 W/m² -
1788355507 28.33° C 68% 1015.8 hPa 0 mm - 67 W/m² -
1788355202 28.33° C 68% 1015.5 hPa 0 mm - 61 W/m² -
1788354898 27.22° C 70% 1015.6 hPa 0 mm - 56 W/m² -
1788354598 26.67° C 73% 1015.9 hPa 0 mm - 50 W/m² -
1788354294 26.11° C 74% 1015.5 hPa 0 mm - 36 W/m² -
1788353989 26.11° C 74% 1015.5 hPa 0 mm - 33 W/m² -
1788353685 25.56° C 75% 1015.7 hPa 0 mm - 30 W/m² -
1788353380 25.56° C 75% 1015.6 hPa 0 mm - 26 W/m² -
1788353076 25.56° C 75% 1015.5 hPa 0 mm - 23 W/m² -
1788352771 25.56° C 75% 1015.4 hPa 0 mm - 21 W/m² -
1788352468 25.56° C 75% 1015.6 hPa 0 mm - 17 W/m² -
1788352166 25.56° C 75% 1015.5 hPa 0 mm - 13 W/m² -

* Rain latest hour (hover to see other rain measurements)
** Current wind speed in m/s (hover to see current wind gust speed)